Location: Deuil
(48.9767°N, 2.3272°E)
Time: 01:00:40
(UTC+00:00)

COSMOS 2251 DEB - Visible Passes

Search period start: 15 August 2022 00:00
Search period end: 25 August 2022 00:00
Orbit: 612 x 771 km, 73.8° (Epoch: 14 August)

Date Brightness Start Highest point End Pass type
(mag) Time Alt. Az. Time Alt. Az. Time Alt. Az.
15 Aug ? 00:12:54 50° E 00:12:54 50° E 00:17:14 10° NNE visible
15 Aug ? 01:51:32 22° W 01:53:06 26° NW 01:57:22 10° N visible
15 Aug ? 23:13:55 19° ENE 23:13:55 19° ENE 23:16:26 10° NE visible
16 Aug ? 00:52:33 58° WNW 00:52:42 58° WNW 00:57:44 10° NNE visible
16 Aug ? 02:32:12 10° WNW 02:34:22 13° NW 02:36:35 10° NNW visible
16 Aug ? 23:53:33 50° ENE 23:53:33 50° ENE 23:57:40 10° NNE visible
17 Aug ? 01:32:11 22° WNW 01:33:33 25° NW 01:37:45 10° N visible
17 Aug ? 22:54:31 20° ENE 22:54:31 20° ENE 22:56:58 10° NE visible
18 Aug ? 00:33:10 54° WNW 00:33:10 54° WNW 00:38:09 10° NNE visible
18 Aug ? 02:12:50 10° WNW 02:14:50 12° NW 02:16:52 10° NNW visible
18 Aug ? 23:34:07 49° ENE 23:34:07 49° ENE 23:38:06 10° NNE visible
19 Aug ? 01:12:45 22° WNW 01:13:58 24° NW 01:18:07 10° N visible
19 Aug ? 22:35:02 21° ENE 22:35:02 21° ENE 22:37:27 10° NE visible
20 Aug ? 00:13:40 51° NW 00:13:40 51° NW 00:18:31 10° NNE visible
20 Aug ? 01:53:30 10° WNW 01:55:17 12° NW 01:57:06 10° NNW visible
20 Aug ? 23:14:34 50° NE 23:14:34 50° NE 23:18:32 10° NNE visible
21 Aug ? 00:53:12 21° WNW 00:54:23 23° NW 00:58:27 10° N visible
21 Aug ? 22:15:26 22° ENE 22:15:26 22° ENE 22:17:56 10° NE visible
21 Aug ? 23:54:04 48° NW 23:54:04 48° NW 23:58:54 10° NNE visible
22 Aug ? 01:34:10 10° NW 01:35:43 11° NW 01:37:17 10° NNW visible
22 Aug ? 22:54:54 52° NE 22:54:54 52° NE 22:58:54 10° NNE visible
23 Aug ? 00:33:32 20° WNW 00:34:48 22° NW 00:38:47 10° N visible
23 Aug ? 21:55:42 23° ENE 21:55:42 23° ENE 21:58:22 10° NE visible
23 Aug ? 23:34:20 46° NW 23:34:20 46° NW 23:39:15 10° NNE visible
24 Aug ? 01:14:52 10° NW 01:16:08 11° NW 01:17:25 10° NNW visible
24 Aug ? 22:35:05 56° NE 22:35:05 56° NE 22:39:16 10° NNE visible
